Regional Weather Roundup
Issued by NWS

Home | Current Version | Previous Version | Graphics & Text | Print | Product List | Glossary On
Versions: 1 2 3 4 5 6 7 8 9 10 11 12 13 14 15 16 17 18 19 20 21 22 23 24 25 26 27
000
ASUS45 KCYS 241410
RWRWY

WYOMING REGIONAL WEATHER ROUNDUP
NATIONAL WEATHER SERVICE CHEYENNE WY
700 AM MST SAT FEB 24 2018

NOTE:  "FAIR" INDICATES FEW OR NO CLOUDS BELOW 12,000 FEET
WITH NO SIGNIFICANT WEATHER AND/OR OBSTRUCTIONS TO VISIBILITY.

WYZ001-241500-
YELLOWSTONE NATIONAL PARK

CITY           SKY/WX    TMP DP  RH WIND       PRES   REMARKS
LK YELLOWSTONE   N/A      3  -3  76 VRB6      29.79F WCI  -8
W YELLOWSTONE  NOT AVBL

$$
WYZ002>013-054>058-071-098>099-241500-
NORTHERN WYOMING

CITY           SKY/WX    TMP DP  RH WIND       PRES   REMARKS
JACKSON        FLURRIES   9   3  77 S14       29.90S WCI  -7
CODY           FAIR      20   1  43 W14G23    29.76R WCI   7
GREYBULL       CLOUDY    -9 -13  83 CALM      29.85R
WORLAND        FAIR      -8 -11  86 CALM      29.82R
SHERIDAN       FAIR       0  -9  65 CALM      29.75S
BUFFALO        FAIR      11  -5  48 W5        29.70F WCI   3
GILLETTE       FAIR       6   0  76 NW6       29.73S WCI  -4
HULETT         FAIR      14  10  85 MISG      29.75S
NEWCASTLE      FOG        5   3  92 NE5       29.75S VSB 3/4 WCI  -4

$$
WYZ014>020-022>026-101>103-241500-
CENTRAL WYOMING

CITY           SKY/WX    TMP DP  RH WIND       PRES   REMARKS
BIG PINEY      CLOUDY    -6 -11  79 CALM      29.89R
PINEDALE       PTSUNNY   -2  -8  78 W5        29.88S WCI -12
DUBOIS           N/A    N/A N/A N/A MISG        N/A
LANDER         FAIR       9   0  67 SE5       29.79R WCI   1
RIVERTON       CLOUDY    17  -1  45 NW26G33   29.76R WCI  -2
CASPER         FAIR       8  -1  66 SW20      29.77S WCI -11
DOUGLAS        FAIR       5  -1  76 W9        29.76F WCI  -9

$$
WYZ021-027>030-104>119-241500-
SOUTHERN WYOMING

CITY           SKY/WX    TMP DP  RH WIND       PRES   REMARKS
EVANSTON       CLOUDY     7   4  87 SW14      29.96R WCI -10
ROCK SPRINGS   MOCLDY     8   1  73 W23       29.91R WCI -13
DIXON          FAIR      -8 -13  79 CALM      29.98R
RAWLINS        HAZE       4  -1  80 SW29G38   29.83R VSB 1   WCI -20
SARATOGA       FAIR       7   0  72 SW20G26   29.85S WCI -13
LARAMIE        FAIR       6  -7  54 W9        29.75R WCI  -8
CHEYENNE       FAIR      16   2  54 W26G35    29.71F WCI  -3
TORRINGTON     FOG       12  12 100 N5        29.78R VSB<1/4 WCI   4
PINE BLUFFS    FAIR      10   5  79 W8        29.78S WCI  -1

$$




USA.gov is the U.S. government's official web portal to all federal, state and local government web resources and services.